Probability
29 32 32 32 29 23 19 13 13 10 6 6 3 0 0 0 0 0 0 3 3 3 0 0 0 0 0 0 0 0 0 0 0 0 0 0 0 0 0 0 0 0 0
32 32 32 35 29 29 26 16 16 19 13 6 3 0 0 3 0 0 0 0 0 0 0 0 0 0 0 0 0 0 0 0 0 0 0 0 0 0 0 0 0 0 0
29 35 35 26 23 26 23 23 16 16 16 10 10 6 3 3 3 0 0 0 0 0 0 0 0 3 3 0 0 0 0 0 0 0 0 0 0 0 0 0 0 0 0
32 32 26 23 16 19 16 16 19 16 13 10 6 3 3 3 3 3 3 3 3 0 0 0 0 0 0 3 0 0 0 0 0 0 0 0 0 0 0 0 0 0 0
29 23 19 19 16 13 10 13 13 13 13 13 6 6 6 3 3 3 3 3 0 0 0 0 0 0 0 0 0 0 0 0 0 0 0 0 0 0 0 0 0 0 0
23 19 19 19 19 16 16 16 19 19 10 6 10 6 3 6 0 0 0 0 0 0 0 0 0 0 0 0 0 0 0 0 0 0 0 0 0 0 0 0 0 0 0
26 19 19 23 19 16 19 16 10 10 10 6 6 6 6 3 0 0 0 0 0 0 0 0 3 3 0 0 0 0 0 0 0 0 0 0 0 0 0 0 0 0 0
23 23 23 19 19 16 13 13 13 13 13 6 6 10 6 3 0 0 0 0 0 0 0 0 0 0 0 0 0 0 0 0 0 0 0 0 0 0 0 0 0 0 0
26 26 23 23 19 10 10 10 10 10 10 10 10 10 6 3 0 0 0 0 0 0 0 0 0 0 0 0 0 0 0 0 0 0 0 0 0 0 0 0 0 0 0
23 16 16 16 13 10 10 10 10 10 10 10 10 10 6 3 3 0 0 0 0 0 0 0 0 0 0 0 0 0 0 0 0 0 0 0 0 0 0 0 0 0 0
13 13 13 10 6 6 6 6 6 10 10 10 10 10 10 3 3 0 0 0 0 0 0 0 0 0 0 0 0 0 0 0 0 0 0 0 0 0 0 0 0 0 0
13 13 13 6 6 6 6 6 6 6 10 10 10 10 6 3 3 0 0 0 0 0 0 0 0 0 0 0 0 0 0 0 0 0 0 0 0 0 0 0 0 0 0
13 13 10 6 6 6 6 6 6 6 6 6 6 6 3 3 0 0 0 0 0 0 0 0 0 0 0 0 0 0 0 0 0 0 0 0 0 0 0 0 0 0 0
13 10 6 6 6 6 6 6 6 6 6 6 6 6 6 0 0 0 0 0 0 0 0 0 0 0 0 0 0 0 0 0 0 0 0 0 0 0 0 0 0 0 0
10 3 3 3 6 6 3 3 6 3 3 3 6 6 6 0 0 0 0 0 0 0 0 0 0 0 0 0 0 0 0 0 0 0 0 0 0 0 0 0 0 0 0
6 6 3 3 3 0 3 3 3 3 3 3 3 3 3 0 0 0 0 0 0 0 0 0 0 0 0 0 0 0 0 0 0 0 0 0 0 0 0 0 0 0 0
6 6 6 3 0 0 0 3 3 0 0 0 0 0 3 0 0 0 0 0 0 0 0 0 0 0 0 0 0 0 0 0 0 0 0 0 0 0 0 0 0 0 0
6 6 3 3 3 0 0 3 3 3 0 0 0 0 0 0 0 0 0 0 0 0 0 0 0 0 0 0 0 0 0 0 0 0 0 0 0 0 0 0 0 0 0
6 3 3 3 3 3 0 0 3 3 3 0 0 0 0 0 0 0 0 0 0 0 0 0 0 0 0 0 0 0 0 0 0 0 0 0 0 0 0 0 0 0 0
0 3 0 0 0 0 0 0 3 3 3 0 0 0 0 0 0 0 0 0 0 0 0 0 0 0 0 0 0 0 0 0 0 0 0 0 0 0 0 0 0 0 0
0 0 0 0 0 0 0 0 0 3 3 0 0 0 0 0 0 0 0 0 0 0 0 0 0 0 0 0 0 0 0 0 0 0 0 0 0 0 0 0 0 0 0
0 0 0 0 0 0 0 0 0 0 0 0 0 0 0 0 0 0 0 0 0 0 0 0 0 0 0 0 0 0 0 0 0 0 0 0 0 0 0 0 0 0 0
0 0 0 0 0 0 0 0 0 0 0 0 0 0 0 0 0 0 0 0 0 0 0 0 0 0 0 0 0 0 0 0 0 0 0 0 0 0 0 0 0 0 0
0 0 0 0 0 0 0 0 0 0 0 0 0 0 0 0 0 0 0 0 0 0 0 0 0 0 0 0 0 0 0 0 0 0 0 0 0 0 0 0 0 0 0
0 0 0 0 0 0 0 0 0 0 0 0 0 0 0 0 0 0 0 0 0 0 0 0 0 0 0 0 0 0 0 0 0 0 0 0 0 0 0 0 0 0 0
0 0 0 0 0 0 0 0 0 0 0 0 0 0 0 0 0 0 0 0 0 0 0 0 0 0 0 0 0 0 0 0 0 0 0 0 0 0 0 0 0 0 0
Height
5890 5889 5888 5887 5886 5886 5885 5885 5885 5885 5885 5884 5884 5884 5884 5884 5883 5882 5882 5881 5880 5879 5878 5878 5877 5876 5875 5874 5873 5872 5871 5870 5868 5867 5865 5863 5861 5860 5858 5856 5853 5851 5849
5889 5888 5887 5886 5885 5884 5884 5883 5883 5883 5883 5882 5882 5881 5881 5880 5880 5879 5878 5877 5876 5875 5874 5873 5872 5871 5871 5869 5868 5867 5866 5864 5863 5861 5859 5857 5855 5853 5851 5848 5846 5843 5841
5888 5887 5885 5884 5884 5883 5882 5881 5881 5880 5880 5879 5879 5878 5878 5877 5876 5875 5874 5873 5872 5871 5869 5868 5867 5866 5865 5864 5863 5861 5860 5858 5856 5854 5852 5850 5848 5846 5844 5841 5838 5836 5833
5887 5885 5884 5883 5882 5881 5880 5879 5878 5878 5877 5876 5875 5875 5874 5873 5872 5871 5869 5868 5867 5865 5864 5863 5862 5861 5859 5858 5857 5855 5854 5852 5850 5848 5846 5843 5841 5838 5836 5833 5830 5828 5825
5885 5883 5882 5881 5879 5878 5878 5877 5876 5875 5874 5873 5872 5871 5870 5868 5867 5866 5865 5863 5862 5860 5859 5858 5857 5855 5853 5852 5850 5849 5847 5845 5843 5841 5838 5836 5833 5830 5828 5825 5822 5819 5816
5883 5880 5879 5879 5877 5876 5875 5874 5873 5872 5871 5869 5868 5867 5865 5864 5862 5861 5860 5858 5857 5855 5854 5852 5850 5849 5847 5845 5843 5841 5840 5838 5835 5833 5831 5828 5825 5823 5820 5816 5813 5810 5807
5881 5879 5878 5877 5875 5874 5873 5871 5870 5868 5867 5866 5864 5862 5861 5859 5858 5856 5854 5853 5851 5850 5848 5846 5844 5842 5840 5838 5836 5834 5832 5830 5828 5825 5823 5820 5817 5814 5811 5807 5804 5801 5798
5878 5877 5876 5874 5873 5871 5870 5869 5867 5865 5864 5862 5860 5858 5856 5854 5853 5851 5849 5848 5846 5844 5842 5840 5838 5836 5834 5831 5829 5827 5824 5822 5819 5817 5814 5811 5808 5804 5801 5798 5795 5791 5788
5875 5874 5872 5871 5870 5868 5867 5865 5864 5862 5860 5858 5856 5853 5851 5850 5848 5846 5844 5842 5840 5838 5836 5833 5831 5829 5827 5824 5822 5819 5816 5814 5811 5807 5804 5801 5798 5795 5792 5788 5785 5782 5778
5871 5870 5868 5867 5866 5864 5863 5861 5860 5858 5855 5853 5851 5848 5846 5844 5842 5840 5838 5836 5834 5831 5829 5826 5824 5821 5819 5816 5814 5811 5808 5805 5802 5799 5796 5792 5789 5786 5782 5779 5775 5772 5769
5867 5865 5864 5863 5861 5860 5858 5856 5854 5852 5850 5848 5846 5844 5841 5839 5836 5834 5831 5829 5827 5824 5822 5819 5816 5814 5811 5808 5805 5802 5799 5796 5793 5790 5786 5783 5780 5776 5773 5769 5766 5763 5759
5861 5860 5859 5858 5856 5854 5852 5851 5849 5847 5844 5842 5840 5837 5835 5833 5830 5828 5825 5822 5820 5817 5814 5812 5809 5806 5803 5800 5797 5794 5791 5788 5784 5781 5778 5774 5770 5767 5763 5760 5756 5753 5749
5855 5854 5853 5851 5850 5848 5846 5844 5842 5840 5838 5835 5833 5831 5829 5826 5823 5821 5818 5815 5812 5810 5807 5804 5801 5798 5795 5792 5789 5785 5782 5779 5775 5772 5768 5765 5761 5757 5754 5750 5747 5743 5739
5849 5848 5846 5844 5842 5841 5839 5837 5835 5833 5831 5828 5826 5824 5821 5819 5816 5813 5810 5808 5805 5802 5799 5796 5793 5790 5786 5783 5780 5776 5773 5769 5766 5762 5759 5755 5751 5748 5744 5741 5737 5734 5730
5842 5841 5839 5837 5836 5834 5832 5829 5827 5825 5823 5821 5818 5816 5814 5811 5808 5805 5802 5799 5797 5794 5791 5788 5784 5781 5778 5774 5771 5767 5764 5760 5757 5753 5750 5746 5742 5739 5735 5731 5728 5725 5721
5835 5833 5832 5830 5828 5826 5824 5822 5819 5817 5815 5813 5810 5808 5805 5803 5800 5797 5794 5791 5788 5785 5782 5779 5776 5772 5769 5766 5762 5759 5755 5752 5748 5745 5741 5737 5733 5730 5726 5723 5719 5716 5712
5827 5825 5824 5822 5820 5818 5816 5814 5812 5810 5807 5805 5802 5800 5797 5795 5792 5789 5786 5783 5780 5777 5774 5771 5767 5764 5760 5757 5754 5750 5747 5743 5740 5736 5732 5728 5725 5721 5718 5714 5711 5707 5704
5818 5817 5815 5814 5812 5810 5808 5806 5803 5801 5799 5797 5794 5791 5789 5786 5784 5781 5778 5775 5772 5769 5766 5762 5759 5755 5752 5749 5745 5742 5738 5735 5731 5727 5724 5720 5716 5713 5710 5706 5703 5699 5696
5809 5808 5806 5805 5803 5801 5799 5797 5795 5793 5791 5788 5786 5783 5781 5778 5775 5773 5770 5767 5764 5760 5757 5754 5751 5747 5744 5741 5737 5734 5730 5726 5723 5719 5716 5712 5709 5705 5702 5698 5695 5692 5689
5801 5799 5798 5796 5794 5793 5791 5788 5786 5784 5782 5779 5777 5775 5772 5769 5766 5764 5761 5758 5755 5752 5749 5745 5742 5739 5736 5732 5729 5726 5722 5718 5715 5711 5708 5704 5701 5697 5694 5691 5687 5684 5681
5792 5790 5789 5787 5786 5784 5782 5780 5778 5776 5774 5771 5769 5766 5764 5761 5758 5755 5753 5750 5747 5743 5740 5737 5734 5731 5727 5724 5721 5717 5714 5710 5706 5703 5699 5696 5693 5689 5686 5683 5680 5677 5673
5783 5781 5780 5779 5777 5775 5773 5772 5770 5767 5765 5763 5761 5758 5756 5753 5749 5747 5744 5741 5738 5735 5732 5728 5725 5722 5719 5716 5712 5709 5705 5702 5699 5695 5692 5688 5685 5682 5678 5675 5672 5669 5666
5774 5773 5772 5770 5769 5767 5765 5763 5761 5759 5757 5755 5753 5749 5747 5745 5742 5738 5735 5732 5729 5726 5723 5720 5717 5714 5711 5707 5704 5701 5697 5694 5690 5687 5684 5681 5677 5674 5671 5668 5665 5662 5659
5766 5764 5763 5762 5760 5758 5757 5755 5753 5751 5748 5746 5743 5741 5738 5736 5733 5730 5727 5724 5721 5718 5715 5712 5709 5706 5703 5699 5696 5693 5689 5686 5683 5679 5676 5673 5670 5667 5664 5661 5658 5654 5651
5757 5756 5755 5753 5752 5750 5749 5747 5745 5743 5740 5737 5734 5732 5730 5727 5725 5722 5719 5716 5713 5710 5707 5704 5701 5698 5695 5691 5688 5685 5681 5678 5675 5671 5668 5665 5662 5659 5656 5653 5650 5647 5644
5750 5749 5747 5746 5744 5743 5741 5739 5737 5735 5732 5730 5727 5725 5722 5720 5717 5714 5711 5708 5705 5702 5699 5696 5693 5689 5686 5683 5680 5676 5673 5670 5667 5664 5660 5657 5654 5651 5648 5644 5641 5638 5635
Wind_Speed
7 6 5 4 3 3 4 4 5 6 6 7 8 9 10 11 11 12 13 13 14 15 16 16 17 18 17 18 18 19 19 20 21 22 23 23 24 24 24 25 26 27 28
7 7 6 5 4 4 4 5 6 7 7 8 8 9 11 12 12 12 13 15 16 17 17 16 17 17 18 19 20 20 21 21 22 23 24 25 25 26 26 27 28 28 29
8 7 7 6 5 5 5 6 6 7 8 9 10 10 11 12 13 14 15 16 17 17 18 18 18 19 20 21 21 22 22 23 23 24 25 26 27 27 28 29 29 30 31
9 8 7 7 6 6 7 8 8 8 9 10 11 12 13 13 14 15 16 16 17 18 19 19 19 20 21 21 21 22 24 24 25 26 26 27 28 28 29 30 30 31 32
10 10 9 9 8 8 8 8 8 9 10 11 11 12 13 15 15 16 17 17 18 18 19 20 21 21 22 22 23 24 25 26 26 27 27 28 28 29 30 31 32 32 33
10 10 10 11 10 9 10 9 10 10 11 12 12 13 14 15 16 17 17 17 18 19 20 20 21 22 23 23 24 25 25 26 27 28 28 28 29 30 31 32 32 33 34
11 11 11 11 11 11 11 11 12 12 12 13 14 15 15 16 16 17 17 18 18 19 20 21 21 22 23 24 24 25 26 26 27 29 29 30 31 32 32 33 33 34 34
13 12 13 13 12 13 13 13 13 13 13 14 15 16 16 17 17 17 18 18 19 20 20 21 22 23 24 25 26 26 26 27 28 29 30 32 32 32 32 33 34 34 34
14 14 14 14 14 14 14 15 15 16 16 16 17 17 17 18 18 18 19 20 21 21 22 22 23 24 25 25 26 27 27 28 28 29 30 31 32 32 33 33 34 34 34
16 16 16 17 17 18 17 17 18 18 19 19 18 18 19 19 20 20 21 22 22 23 23 24 25 25 26 27 27 27 28 28 29 30 31 31 31 32 32 33 34 34 35
18 18 19 19 20 20 20 20 21 21 21 21 21 21 21 21 22 23 23 24 24 24 24 25 26 27 27 27 28 28 29 29 30 31 32 32 33 33 33 33 34 34 34
20 20 21 21 21 21 22 22 22 23 23 24 23 22 22 23 24 25 25 25 26 26 26 27 28 28 28 28 29 30 30 30 32 33 33 33 33 33 33 34 34 34 34
22 22 22 23 23 23 24 24 24 25 25 24 24 24 24 25 26 26 26 27 27 27 27 27 28 29 29 30 30 31 31 31 32 33 33 33 33 33 34 34 34 34 34
24 24 24 25 25 25 26 26 26 26 26 26 26 26 26 27 28 27 27 27 27 28 28 29 29 30 30 31 31 31 31 32 32 33 33 33 34 34 33 33 32 32 33
26 26 26 26 26 27 27 27 28 27 27 28 28 28 28 28 28 28 28 28 28 29 29 29 30 31 31 31 31 31 31 32 32 33 33 33 33 33 32 31 31 31 32
27 27 27 27 27 27 27 28 28 28 28 28 29 29 29 29 29 29 29 29 30 30 30 30 30 31 30 31 30 31 31 32 33 33 33 32 31 30 30 30 31 31 31
29 29 29 29 29 29 29 29 29 29 29 29 29 30 29 29 29 29 29 29 30 30 30 31 31 30 30 30 30 31 32 32 32 32 32 31 30 29 29 30 30 29 28
30 30 30 30 30 30 30 30 30 30 30 30 30 30 29 29 29 29 29 29 30 30 31 31 31 30 29 29 30 30 31 31 31 31 30 30 29 29 29 29 29 28 27
30 30 31 31 31 31 31 30 31 31 30 30 30 29 29 30 30 29 29 30 31 31 31 31 31 30 29 30 30 30 31 31 30 30 30 30 29 29 29 28 28 27 27
31 30 30 30 30 30 30 31 30 30 29 29 30 30 30 30 30 30 30 31 31 31 31 31 31 30 30 30 30 30 31 31 30 30 30 29 29 29 29 28 28 27 26
31 31 30 29 29 29 30 30 30 30 30 30 30 29 30 30 30 30 31 31 31 31 30 30 30 30 30 30 30 30 30 30 30 30 29 29 29 29 28 28 27 27 26
30 30 29 29 29 29 29 30 30 30 29 29 29 29 30 30 29 30 30 30 30 30 30 30 29 29 29 29 29 29 29 29 29 29 29 28 28 27 27 27 27 26 26
29 29 29 29 29 29 29 29 29 28 28 29 29 30 30 30 29 30 30 30 29 29 29 29 29 29 29 29 29 29 29 29 29 28 28 27 27 27 27 27 27 27 27
29 28 28 28 28 27 27 27 27 28 27 27 28 29 29 29 29 29 29 28 28 28 28 28 29 29 29 29 29 28 28 28 28 28 28 27 27 27 27 27 27 27 27
27 27 27 27 26 26 26 26 27 27 27 27 27 27 28 28 27 27 28 28 28 28 28 28 28 29 29 29 28 28 28 27 28 28 28 27 27 27 27 27 27 27 27
25 26 26 26 26 26 26 26 27 27 27 26 26 27 27 27 28 28 28 28 27 28 28 28 29 29 28 28 28 28 28 28 28 28 28 28 28 28 28 28 28 28 28
Wind_Direction
351 351 344 328 310 297 283 275 268 270 268 268 269 270 274 276 274 277 280 280 281 283 278 276 275 277 278 280 278 280 280 281 281 280 281 283 283 285 284 286 286 284 285
348 346 345 338 316 304 288 277 275 274 275 275 279 277 277 280 279 282 283 282 283 284 285 282 279 282 280 280 280 281 283 284 283 284 284 285 286 287 288 288 288 286 286
341 342 340 337 326 312 301 290 283 280 281 278 278 281 283 284 284 285 286 285 285 285 284 283 283 283 283 281 281 281 282 284 285 287 286 287 288 289 289 289 289 287 287
332 333 330 329 320 311 305 298 292 290 288 285 283 286 285 284 286 287 288 288 286 286 285 283 284 284 284 283 281 282 282 284 286 287 288 288 288 288 288 288 288 287 287
323 321 323 317 313 306 304 303 299 296 296 292 291 293 289 287 289 291 291 289 289 287 284 284 285 286 285 284 283 283 284 285 286 287 289 289 288 287 288 288 288 287 287
321 321 318 319 314 308 305 307 305 301 300 299 297 296 293 294 295 295 294 292 291 289 287 286 288 287 285 285 285 286 286 286 286 287 288 288 289 289 288 289 289 287 287
315 314 317 317 319 320 315 309 307 306 306 306 302 299 298 297 297 297 297 294 293 293 291 289 289 289 289 290 290 289 289 288 288 289 290 289 290 291 290 290 289 288 288
311 313 315 316 313 314 314 313 314 313 309 307 305 304 301 299 297 298 298 296 295 294 294 292 290 290 291 292 291 290 290 290 290 289 290 290 291 291 290 289 288 287 289
304 308 310 311 309 308 308 309 310 309 309 309 308 305 302 300 297 297 297 296 295 295 295 293 293 293 293 293 293 294 293 293 292 291 291 292 292 292 290 290 289 288 289
297 298 300 301 303 305 304 304 306 306 307 306 306 304 303 301 299 299 298 298 297 296 296 295 295 295 295 294 295 296 295 295 294 294 293 293 293 293 292 292 292 292 292
293 293 294 296 298 300 301 302 303 303 303 303 302 302 301 300 300 299 298 298 297 295 295 295 295 296 295 295 295 296 296 295 295 295 295 294 294 294 294 294 293 293 294
290 291 292 293 296 298 299 300 302 302 301 302 301 301 301 300 299 299 299 299 298 298 296 296 296 296 296 296 295 295 296 296 295 295 296 296 296 296 296 296 295 295 295
292 291 291 293 295 297 299 300 300 300 299 299 299 300 300 300 301 301 299 298 298 298 298 298 298 298 297 296 296 296 296 297 296 296 296 297 297 297 296 296 296 296 295
290 291 291 292 294 296 298 297 298 298 298 297 298 299 300 300 300 300 299 297 297 297 297 297 297 298 297 297 296 295 296 296 296 297 297 298 299 299 297 297 297 298 297
289 290 292 294 294 294 295 296 297 297 296 296 297 298 299 299 299 298 297 297 297 298 299 298 297 297 297 296 296 296 297 297 299 300 300 300 300 299 299 298 298 298 298
288 289 290 292 293 295 295 295 295 294 294 295 296 297 298 297 297 297 297 297 297 299 299 299 299 298 297 297 297 297 298 299 299 300 300 301 300 300 300 300 301 301 300
287 288 289 290 291 292 294 295 294 294 294 295 296 297 297 297 296 296 296 297 296 297 298 299 298 298 297 297 297 297 298 299 300 301 301 301 300 300 301 302 302 302 302
286 287 289 289 290 291 292 293 293 293 294 295 295 296 297 297 297 296 296 297 297 297 298 298 298 298 298 298 299 299 300 301 302 302 302 302 302 302 302 303 302 301 301
286 286 288 289 290 290 290 291 291 292 294 295 295 295 296 297 297 296 296 297 297 298 298 297 297 297 298 298 299 300 302 302 303 303 303 302 303 303 303 302 301 300 300
286 286 287 288 289 290 290 290 290 290 292 294 295 294 295 296 296 296 296 296 296 297 297 297 297 297 298 298 299 300 301 302 302 303 303 303 302 302 302 301 300 300 300
285 287 288 288 288 289 289 288 288 289 291 291 292 293 296 297 295 295 295 296 296 297 298 297 296 297 298 299 300 301 301 302 303 304 303 302 302 302 301 300 299 299 299
285 285 285 286 287 289 288 286 287 289 290 291 293 294 295 297 297 297 297 297 298 298 298 298 298 300 301 302 303 303 303 304 304 303 302 303 303 302 302 302 302 301 300
283 283 284 286 288 289 289 288 290 291 292 294 294 295 295 296 296 298 298 298 298 298 298 299 300 301 302 303 304 304 304 304 304 304 304 303 303 302 302 302 301 301 301
282 284 285 286 287 287 288 289 290 292 293 293 293 294 296 297 297 297 298 299 299 299 299 299 300 302 303 303 304 304 304 304 304 304 303 303 303 303 302 301 300 300 301
283 283 284 285 286 287 288 288 288 291 292 293 294 294 295 296 296 297 298 299 299 299 298 299 300 302 304 305 305 305 304 304 303 303 303 302 303 303 301 300 300 300 300
282 282 283 285 287 288 288 288 290 292 294 295 296 296 296 297 297 298 298 299 298 299 300 300 302 303 304 305 305 304 305 304 304 303 302 302 302 301 301 300 299 298 299